Location: Nairn
(57.5833°N, 3.8667°W)
Time: 03:00:49
(UTC+00:00)

UNK - Pass Details

Date: 18 December 2021
Orbit: 666 x 686 km, 98.2° (Epoch: 22 January)

Event Time Altitude Azimuth Distance (km) Brightness Sun altitude
Rises 16:37:31 0° 12° (NNE) 3,027 6.7 -7.9°
Reaches altitude 10° 16:39:57 10° 2° (N) 2,108 6.0 -8.2°
Maximum altitude 16:43:57 30° 302° (WNW) 1,193 5.3 -8.6°
Drops below altitude 10° 16:47:55 10° 241° (WSW) 2,094 8.0 -9.1°
Sets 16:50:20 0° 231° (SW) 3,004 9.2 -9.4°
